Miscellaneous Local Product
Issued by NWS Hastings, NE

Home | Current Version | Previous Version | Text Only | Print | Product List | Glossary On
Versions: 1 2 3 4 5 6 7 8 9 10 11 12 13 14 15 16 17 18 19 20 21 22 23 24 25 26 27 28 29 30 31 32 33 34 35 36 37 38 39 40 41 42 43 44 45 46 47 48 49 50
591
AXUS43 KGID 030302
MISGRI

GID CWA HOURLY WEATHER ROUNDUP
NATIONAL WEATHER SERVICE HASTINGS NE
1000 PM CDT MON MAY 02 2016

NOTE: "FAIR" INDICATES FEW OR NO CLOUDS BELOW 12,000 FEET WITH NO
SIGNIFICANT WEATHER AND/OR OBSTRUCTIONS TO VISIBILITY.

...SOUTH CENTRAL NEBRASKA...

CITY           SKY/WX    TMP DP  RH WIND       PRES   REMARKS
GRAND ISLAND   PTCLDY    52  41  66 S5        30.05R
HASTINGS       PTCLDY    52  39  61 S6        30.04S
KEARNEY        CLEAR     48  37  66 SE6       30.04S
ORD            PTCLDY    47  40  76 SW6       30.01S
YORK           MOCLDY    54  41  62 S3        30.05S
AURORA         MOCLDY    52  40  64 S3        30.05R
LEXINGTON      CLEAR     48  40  73 SE3       30.04R
HOLDREGE       CLEAR     48  40  74 SE6       30.04S
HEBRON         CLOUDY    50  42  75 CALM      30.05F

...NEBRASKA PANHANDLE...

CITY           SKY/WX    TMP DP  RH WIND       PRES   REMARKS
CHADRON        LGT RAIN  51  42  71 VRB3      30.03R
ALLIANCE       CLOUDY    46  38  73 CALM      30.03R
SCOTTSBLUFF    CLEAR     51  33  50 N10       30.05R
SIDNEY         CLOUDY    51  32  48 CALM      30.05R

...WESTERN AND NORTH CENTRAL NEBRASKA...

CITY           SKY/WX    TMP DP  RH WIND       PRES   REMARKS
VALENTINE      LGT RAIN  47  43  86 NW6       30.05R
AINSWORTH      CLOUDY    50  43  75 E3        30.03R
ONEILL         CLOUDY    54  41  62 CALM      30.02S
BROKEN BOW     CLEAR     45  40  82 E3        30.02S
IMPERIAL       PTCLDY    53  32  44 SW8       30.04S
NORTH PLATTE   PTCLDY    42  37  82 E5        30.02F
MCCOOK         PTCLDY    50  37  61 NW5       30.03S

...EASTERN NEBRASKA...

CITY           SKY/WX    TMP DP  RH WIND       PRES   REMARKS
NORFOLK        PTCLDY    47  40  76 S7        30.03R
SO SIOUX CITY  CLOUDY    54  45  71 S5        30.03R
TEKAMAH        CLEAR     53  48  83 SW3       30.04R
COLUMBUS       MOCLDY    54  36  50 S5        30.05S
ALBION         CLEAR     49  41  74 CALM      30.03S
OMAHA EPPLEY   PTCLDY    50  42  74 SE3       30.04S
MILLARD        PTCLDY    51  42  70 CALM      30.04S
LINCOLN        PTCLDY    53  41  63 CALM      30.06S
NEBRASKA CITY  CLEAR     53  39  59 S3        30.05S
BEATRICE       CLEAR     51  41  70 S5        30.06R
FALLS CITY     CLEAR     52  41  66 CALM      30.05S

...NORTHERN KANSAS...

CITY           SKY/WX    TMP DP  RH WIND       PRES   REMARKS
GOODLAND       PTCLDY    50  37  61 CALM      30.06S
HILL CITY      MOCLDY    53  40  61 E3        30.05R
NORTON         CLEAR     50  37  62 E5        30.03S
PHILLIPSBURG   CLEAR     54  41  62 CALM      30.05S
SMITH CENTER   CLEAR     48  43  81 SE8       30.05S
BELOIT         CLEAR     54  41  62 SE5       30.06R
HAYS             N/A     54  36  50 SE9       30.06R VSB 3/4
RUSSELL        PTCLDY    53  42  66 E10       30.05R
CONCORDIA      PTCLDY    49  36  61 S5        30.07R
SALINA         MOCLDY    55  42  61 SE3       30.08R
TOPEKA         CLEAR     48  45  89 CALM      30.08R



USA.gov is the U.S. government's official web portal to all federal, state and local government web resources and services.